Home   Weather   Kingston   Past weeks

Flag for Canada Past Weather in Kingston, Ontario, Canada — Yesterday and Last 2 Weeks

Now
46 °F

Scattered showers. Fog.


Feels Like: 41 °F
Forecast: 36 / 51 °F
Wind: 12 mph from Southwest

Location: Kingston

Current Time: Feb 23, 2017 at 1:50:07 pm

Latest Report: Feb 23, 2017 at 1:00 pm


Visibility: 6 mi

Pressure: 29.62 "Hg

Humidity: 87%

Dew Point: 43 °F

Location of KingstonLocation

Past Weather in Kingston — Graph

°F

Kingston Temperature Yesterday

Maximum temperature yesterday: 48 °F (at 3:00 pm)
Minimum temperature yesterday: 36 °F (at 6:00 am)
Average temperature yesterday: 43 °F

High & Low Weather Summary for the Past Weeks

 TemperatureHumidityPressure
High50 °F (Feb 19, 4:00 pm)93% (Feb 10, 10:00 pm)30.41 "Hg (Feb 10, 10:00 pm)
Low7 °F (Feb 9, 7:00 am)28% (Feb 20, 3:00 pm)29.41 "Hg (Feb 15, 2:00 pm)
Average28 °F71%29.86 "Hg
* Reported Feb 8 12:00 pm — Feb 23 12:00 pm, Kingston, Weather by CustomWeather, © 2017

Note: Actual official high and low records may vary slightly from our data, if they occured in-between our weather recording intervals... More about our weather records

Advertising

Kingston Weather History for the Previous 24 Hours

Scroll right to see more
 ConditionsComfort  
Time TempWeatherWind HumidityBarometerVisibility
12:00 pm
Thu, Feb 23
46 °FOvercast.12 mph87%29.62 "Hg8 mi
11:32 am45 °FOvercast.9 mph87%29.62 "Hg10 mi
11:00 am45 °FSprinkles. Overcast.17 mph87%29.62 "Hg10 mi
10:00 am41 °FSprinkles. Overcast.8 mph87%29.64 "Hg8 mi
9:37 am39 °FOvercast.12 mph93%29.64 "Hg12 mi
9:00 am39 °FSprinkles. Mostly cloudy.14 mph93%29.65 "Hg15 mi
8:00 am41 °FMostly cloudy.2 mph87%29.67 "Hg15 mi
7:00 am41 °FPartly sunny.10 mph93%29.68 "Hg15 mi
6:00 am43 °FMostly cloudy.6 mph87%29.70 "Hg15 mi
11:00 pm
Wed, Feb 22
45 °FOvercast.6 mph71%29.78 "Hg15 mi
10:00 pm46 °FOvercast.5 mph66%29.79 "Hg15 mi
9:00 pm43 °FOvercast.3 mph76%29.80 "Hg15 mi
8:00 pm45 °FOvercast.No wind66%29.80 "Hg15 mi
7:00 pm45 °FMostly cloudy.3 mph71%29.80 "Hg15 mi
6:00 pm45 °FMostly cloudy.3 mph66%29.80 "Hg15 mi
5:00 pm46 °FOvercast.No wind62%29.82 "Hg15 mi
4:00 pm48 °FPartly sunny.No wind58%29.83 "Hg15 mi
3:00 pm48 °FMore clouds than sun.No wind58%29.84 "Hg15 mi
2:00 pm46 °FBroken clouds.2 mph62%29.86 "Hg15 mi
1:00 pm43 °FOvercast.2 mph71%29.88 "Hg15 mi
Weather by CustomWeather, © 2017

See weather overviewHow to use our weather pages